Location: Freistadt
(48.5112°N, 14.5013°E)
Time: 00:41:57
(UTC+01:00)

THOR BURNER 2A DEB - Pass Details

Date: 16 December 2023
Orbit: 786 x 854 km, 99.0° (Epoch: 27 February)

Event Time Altitude Azimuth Distance (km) Brightness Sun altitude
Rises 06:35:02 0° 99° (E) 3,422 ? -11.3°
Reaches altitude 10° 06:39:05 10° 69° (ENE) 2,489 ? -10.7°
Maximum altitude 06:40:59 12° 49° (NE) 2,360 ? -10.4°
Drops below altitude 10° 06:42:52 10° 29° (NNE) 2,488 ? -10.2°
Sets 06:46:55 0° 359° (N) 3,420 ? -9.5°
